Spokane Felts, WA
on Wednesday, January 23, 2013

Wednesday
Previous Day Next Day
Daily Summary
 ActualAverageRecord
Temperature
Mean Temperature °F 32°F  
Max Temperature 35°F 38°F 50°F (2005)
Min Temperature 21°F 27°F 4°F (2008)
Degree Days
Heating Degree Days 37 33  
Month to date heating degree days 892 784  
Since 1 July heating degree days 3060 3453  
Cooling Degree Days 0 0  
Month to date cooling degree days 0 0  
Year to date cooling degree days 0 0  
Moisture
Dew Point 24°F   
Average Humidity 81    
Maximum Humidity 92    
Minimum Humidity 69    
Precipitation
Precipitation 0.14 in 0.06 in 0.40 in (2004)
Month to date precipitation 1.06 1.50  
Year to date precipitation 1.06 1.50  
Wind
Wind Speed 3 mph   
Max Wind Speed 18 mph   
Max Gust Speed 22 mph   
Visibility 6 miles   
Events Rain , Snow   

Key: T is trace of precipitation, MM is missing value
Source: NWS Daily Summary
Time(PST)TemperatureDew PointHumidity Pressure Visibility Wind DirectionWind SpeedGust SpeedPrecipitationEvents Conditions
12:07 AM 24.8°F 19.4°F 80% 30.14 in 8.0 miles Calm Calm - N/A   Scattered Clouds
12:42 AM 24.8°F 19.4°F 80% 30.13 in 8.0 miles Calm Calm - N/A   Mostly Cloudy
12:53 AM 23.0°F 19.0°F 85% 30.21 in 8.0 miles Calm Calm - N/A   Overcast
1:53 AM 24.1°F 19.9°F 84% 30.21 in 7.0 miles Calm Calm - N/A   Overcast
2:13 AM 23.0°F 19.4°F 86% 30.14 in 7.0 miles Calm Calm - N/A   Scattered Clouds
2:53 AM 23.0°F 19.0°F 85% 30.19 in 6.0 miles East 3.5 mph - N/A   Clear
3:44 AM 24.8°F 19.4°F 80% 30.11 in 7.0 miles Calm Calm - N/A   Scattered Clouds
3:53 AM 24.1°F 19.9°F 84% 30.19 in 6.0 miles Calm Calm - N/A   Scattered Clouds
4:53 AM 24.1°F 19.0°F 81% 30.16 in 6.0 miles ESE 3.5 mph - N/A   Haze
5:19 AM 24.8°F 19.4°F 80% 30.08 in 7.0 miles Calm Calm - N/A   Scattered Clouds
5:53 AM 23.0°F 19.0°F 85% 30.14 in 8.0 miles Calm Calm - N/A   Clear
6:53 AM 21.9°F 19.0°F 89% 30.14 in 7.0 miles Calm Calm - N/A   Clear
7:53 AM 24.1°F 19.9°F 84% 30.13 in 5.0 miles Calm Calm - N/A   Clear
8:53 AM 24.1°F 19.9°F 84% 30.12 in 7.0 miles Calm Calm - N/A   Clear
9:53 AM 26.1°F 21.9°F 84% 30.12 in 7.0 miles Calm Calm - N/A   Clear
10:53 AM 30.9°F 23.0°F 72% 30.09 in 10.0 miles Calm Calm - N/A   Clear
11:53 AM 32.0°F 24.1°F 73% 30.07 in 10.0 miles East 4.6 mph - N/A   Clear
12:53 PM 33.1°F 24.1°F 70% 30.04 in 10.0 miles Calm Calm - N/A   Partly Cloudy
1:53 PM 34.0°F 25.0°F 70% 30.01 in 10.0 miles Calm Calm - N/A   Mostly Cloudy
2:53 PM 32.0°F 25.0°F 75% 30.03 in 10.0 miles Calm Calm - N/A   Overcast
3:19 PM 32.0°F 24.8°F 75% 29.96 in 1.5 miles Calm Calm - 0.00 in Snow Light Snow
3:30 PM 30.2°F 26.6°F 86% 29.96 in 0.8 miles East 3.5 mph - 0.01 in Snow Light Snow
3:53 PM 30.9°F 27.0°F 85% 30.03 in 0.8 miles ESE 3.5 mph - 0.03 in Snow Light Snow
3:59 PM 32.0°F 26.6°F 80% 29.97 in 3.0 miles Calm Calm - 0.01 in Snow Light Snow
4:12 PM 32.0°F 26.6°F 80% 29.98 in 3.0 miles South 3.5 mph - 0.01 in Snow Light Snow
4:17 PM 32.0°F 26.6°F 80% 29.98 in 1.0 miles Calm Calm - 0.01 in Snow Light Snow
4:53 PM 32.0°F 28.0°F 85% 30.01 in 1.0 miles ENE 4.6 mph - 0.05 in Snow Light Snow
4:55 PM 32.0°F 28.4°F 87% 29.95 in 2.5 miles ENE 4.6 mph - 0.00 in Snow Light Snow
5:26 PM 32.0°F 28.4°F 87% 29.95 in 2.5 miles Calm Calm - 0.02 in Rain Light Freezing Rain
5:53 PM 33.1°F 30.0°F 89% 30.00 in 2.5 miles Calm Calm - 0.02 in Rain Light Freezing Rain
6:00 PM 33.8°F 30.2°F 87% 29.94 in 3.0 miles Calm Calm - 0.00 in Rain Light Freezing Rain
6:33 PM 33.8°F 28.4°F 81% 29.92 in 3.0 miles ENE 4.6 mph - 0.02 in Rain Light Rain
6:53 PM 33.1°F 30.0°F 89% 29.96 in 3.0 miles NE 4.6 mph - 0.02 in   Overcast
7:33 PM 33.8°F 30.2°F 87% 29.91 in 5.0 miles Calm Calm - 0.01 in Rain Light Rain
7:53 PM 33.1°F 30.0°F 89% 29.97 in 4.0 miles WNW 3.5 mph - 0.01 in   Overcast
8:53 PM 34.0°F 30.0°F 85% 29.99 in 4.0 miles West 4.6 mph - 0.01 in   Overcast
9:31 PM 33.8°F 28.4°F 81% 29.97 in 9.0 miles SW 16.1 mph 21.9 mph 0.00 in   Overcast
9:39 PM 33.8°F 28.4°F 81% 29.98 in 10.0 miles SW 15.0 mph - 0.00 in   Overcast
9:53 PM 32.0°F 26.1°F 79% 30.05 in 10.0 miles SSW 17.3 mph - 0.00 in   Overcast
10:53 PM 28.9°F 21.9°F 75% 30.09 in 10.0 miles SSW 12.7 mph - N/A   Overcast
11:53 PM 27.0°F 21.9°F 81% 30.12 in 10.0 miles SSW 6.9 mph - N/A   Overcast
Moon Phase
Jan. 23 Jan. 26 Feb. 03 Feb. 10 Feb. 17
Sunrise:07:26 AM (PST) Moon Rise:01:47 PM (PST)
Sunset:04:36 PM (PST) Moon Set:04:44 AM (PST)

Copyright © 2014 The Weather Underground, Inc.